Regional Weather Roundup
Issued by NWS

Home | Current Version | Previous Version | Text Only | Print | Product List | Glossary Off
Versions: 1 2 3 4 5 6 7 8 9 10 11 12 13 14 15 16 17 18 19 20 21 22 23 24 25 26 27 28 29 30 31 32 33 34 35 36 37 38 39 40 41 42 43 44 45 46 47 48 49 50

000
ASUS45 KTFX 251310
RWRMT
MONTANA REGIONAL WEATHER ROUNDUP
NATIONAL WEATHER SERVICE GREAT FALLS MT
700 AM MDT SAT MAR 25 2017

NOTE: "FAIR" INDICATES FEW OR NO CLOUDS BELOW 12000 FEET WITH NO
SIGNIFICANT WEATHER AND/OR OBSTRUCTIONS TO VISIBILITY.

MTZ001>007-043-251400-
WEST OF THE DIVIDE

CITY           SKY/WX    TMP DP  RH WIND       PRES   REMARKS
KALISPELL      CLEAR     35  30  82 S6        29.98F WCI  30
MISSOULA       CLOUDY    39  33  79 CALM      30.06R
BUTTE          CLOUDY    34  24  67 NW5       30.03R
MULLAN PASS    LGT SNOW  28  28 100 SW6       29.97R VSB 3/4 WCI  22
ANACONDA         N/A     36  23  60 W9        30.04S WCI  29
DEER LODGE       N/A     34  30  86 CALM      30.07R
EUREKA           N/A     39  30  70 SE10      29.96F
HAMILTON         N/A     36  30  80 S7        30.05S WCI  30
PLAINS           N/A     36  29  76 CALM      30.03
RONAN            N/A     40  29  65 SE5       30.06S
THOMPSON FALLS   N/A     35  33  92 CALM      30.08R
$$

MTZ008-052>055-251400-
SOUTHWEST MONTANA

CITY           SKY/WX    TMP DP  RH WIND       PRES   REMARKS
BOZEMAN        CLOUDY    40  37  89 S5        30.01R
DILLON         CLOUDY    34  31  88 CALM      30.00R
W YELLOWSTONE  LGT SNOW  32  32 100 SW10      30.01S WCI  24
ENNIS          CLOUDY    37  32  81 N5        30.04S
$$

MTZ009-010-012-014-046-048-049-054-251400-
EAST SLOPES AND CENTRAL MONTANA

CITY           SKY/WX    TMP DP  RH WIND       PRES   REMARKS
CUT BANK       MOCLDY    35  23  61 W17       29.88R WCI  25
GREAT FALLS    PTCLDY    41  24  51 SW20      29.92R
MALMSTROM AFB  CLOUDY    42  25  52 SW16      29.93R
HELENA         CLOUDY    41  28  60 S8        30.01R
AUGUSTA          N/A     38  19  47 W15G21    29.91R WCI  29
BOWMANS CRNR     N/A     35  24  64 SW12      29.92R WCI  26
CHOTEAU          N/A     34  21  60 CALM      29.93R
CONRAD           N/A     40  27  60 W15       29.92R
FAIRFIELD        N/A     38  20  46 SW14      29.90R WCI  30
POWER            N/A     36  21  54 SW10      29.90S WCI  29
RAYNESFORD     MOCLDY    41  23  49 W12       29.93R
$$

MTZ011-013-016-021-045-047-050-051-251400-
NORTH CENTRAL MONTANA

CITY           SKY/WX    TMP DP  RH WIND       PRES   REMARKS
HAVRE          CLOUDY    42  29  59 SW14      29.87R
LEWISTOWN      CLOUDY    42  28  57 SW10      29.92R
N BAR RANCH    CLOUDY    45  23  42 NW12G17   29.93R
CHINOOK          N/A     46  27  46 SW16G22   29.85R
DENTON         MOCLDY    42  28  57 W16G29    29.88R
FORT BENTON      N/A     45  25  45 MISG      29.91R
GEYSER         MOCLDY    38  24  57 W13       29.90R WCI  30
GRASS RANGE    CLOUDY    44  30  57 W20       29.88S
STANFORD       MOCLDY    32  24  72 CALM      29.92R
WINIFRED       CLOUDY    41  29  62 SW8       29.89R
$$

MTZ017>020-022>027-061-062-251400-
NORTHEAST MONTANA

CITY           SKY/WX    TMP DP  RH WIND       PRES   REMARKS
GLASGOW        CLOUDY    40  30  67 W9        29.85R
JORDAN           N/A     41  33  73 NW6       29.86R
SIDNEY         CLOUDY    43  34  70 S9        29.84R
WOLF POINT     CLOUDY    42  34  73 SW7       29.84R
MALTA          CLEAR     43  32  65 W7        29.85R
PLENTYWOOD       N/A     41  34  75 CALM      29.80S
POPLAR           N/A     45  36  70 SW6       29.84R
SCOBEY           N/A     44  27  51 CALM      29.80
$$

MTZ028>42-056>058-251400-
SOUTHCENTRAL AND SOUTHEAST MONTANA

CITY           SKY/WX    TMP DP  RH WIND       PRES   REMARKS
BAKER          CLOUDY    40  32  73 S8        29.87S
BILLINGS       CLOUDY    46  30  53 NW10      29.94R
LIVINGSTON     CLOUDY    39  34  82 W9        29.99R
MILES CITY     CLOUDY    44  33  65 W3        29.87R
BIG TIMBER     CLOUDY    41  34  75 SW22G30   29.98R
EKALAKA          N/A     45  28  51 CALM      29.87
FORSYTH          N/A     48  34  57 W5        29.89R
HARLOWTON      MOCLDY    39  31  75 W10       29.96R WCI  32
LAUREL           N/A     46  29  52 W13       29.93S
$$

REGIONAL REPORTS...DAKOTAS

CITY           SKY/WX    TMP DP  RH WIND       PRES   REMARKS
WILLISTON      CLOUDY    42  33  70 S8        29.84S
MINOT          CLOUDY    31  29  92 SE10      29.95F WCI  22
DICKINSON      CLOUDY    32  29  88 S15       29.88R WCI  22
BEACH            N/A    N/A N/A N/A MISG        N/A
TIOGA          MOCLDY    34  34 100 S15       29.87F WCI  24
WATFORD CITY     N/A     41  32  70 S12       29.86S
BISMARCK       CLOUDY    31  30  96 SE10      30.04S FOG     WCI  22
GRAND FORKS    MOCLDY    32  30  92 SE10      30.16S WCI  24
FARGO          CLEAR     30  28  92 E3        30.17F
BUFFALO SD       N/A     35  30  82 S8        29.84S WCI  29
RAPID CITY     CLOUDY    35  28  75 SE12      29.95R WCI  27
$$

REGIONAL REPORTS...WYOMING/IDAHO/WASHINGTON

CITY           SKY/WX    TMP DP  RH WIND       PRES   REMARKS
GILLETTE       CLOUDY    46  32  58 CALM      29.91R
SHERIDAN       CLOUDY    42  35  76 W5        29.90R
BUFFALO WY     CLOUDY    49  23  36 N7        29.93R
CODY           CLOUDY    46  28  49 VRB6      29.94R
YELLOWSTONE LA   N/A     30  30 100 CALM      30.04R
IDAHO FALLS    CLOUDY    40  38  93 SW16      30.03R
SALMON         CLOUDY    37  30  75 S3        30.05S
BOISE          MOCLDY    37  35  92 S3        30.09R
$$

REGIONAL REPORTS...ALBERTA

CITY           SKY/WX    TMP DP  RH WIND       PRES   REMARKS
EDMONTON       CLOUDY    30  28  93 W5        29.73R
CALGARY        PTCLDY    34  18  51 VRB2      29.76R
LETHBRIDGE     PTCLDY    41  25  52 W23G35    29.81R
MEDICINE HAT   PTCLDY    41  27  56 W20G29    29.78R
WATERTON GATE    N/A     37  23  56 SW15G26     N/A  WCI  28
MILK RIVER       N/A     34  27  75 W10         N/A  WCI  26
ONEFOUR          N/A     41  25  52 W25G31      N/A
$$

REGIONAL REPORTS...SASKATCHEWAN

CITY           SKY/WX    TMP DP  RH WIND       PRES   REMARKS
SWIFT CURRENT  CLEAR     39  30  70 SW18G25   29.69S WCI  30
REGINA         CLOUDY    36  32  87 S10       29.73R WCI  28
SASKATOON      PTCLDY    34  32  93 SE8       29.60F WCI  27
VAL MARIE        N/A     41  28  60 W22G29      N/A
ROCKGLEN         N/A     37  34  87 W14         N/A  WCI  29
ASSINIBOIA       N/A     25  25 100 NW7         N/A  WCI  17
$$



USA.gov is the U.S. government's official web portal to all federal, state and local government web resources and services.